Weather History for Glenwood, MN

Change the Weather History Date:

Monday, September 30, 2013

  Actual Average Record
Temperature  
Mean Temperature 64 °F -  
Max Temperature 77 °F 68 °F 83 °F (1952)
Min Temperature 50 °F 40 °F 27 °F (1956)
Degree Days  
Heating Degree Days 2    
Growing Degree Days 14 (Base 50)    
Moisture  
Dew Point 48 °F    
Average Humidity 58    
Maximum Humidity 82    
Minimum Humidity 36    
Precipitation  
Precipitation 0.00 in - - ()
Sea Level Pressure  
Sea Level Pressure 29.60 in    
Wind  
Wind Speed 12 mph (South)    
Max Wind Speed 22 mph    
Max Gust Speed 29 mph    
Visibility 10 miles    
Events      
Averages and records for this station are not official NWS values.
T = Trace of Precipitation, MM = Missing Value Source: NWS Daily Summary

Daily Weather History Graph

Daily Weather History Graph

Search for Another Location

Airport:

Trip Planner

Search our weather history database for the weather conditions in past years. The results will help you decide how hot, cold, wet, or windy it might be!

Date:

Astronomy

Sep. 30, 2013 Rise Set
Actual Time 7:18 AM CDT 7:02 PM CDT
Civil Twilight 6:49 AM CDT 7:32 PM CDT
Nautical Twilight 6:14 AM CDT 8:06 PM CDT
Astronomical Twilight 5:39 AM CDT 8:41 PM CDT
Moon 2:45 AM CDT (9/30) 4:43 PM CDT (9/30)
Length of Visible Light 12h 43m
Length of Day
11h 44m
Waning Crescent, 19% of the Moon is Illuminated
Sep 30
Waning Crescent
Oct 4
New
Oct 11
First Quarter
Oct 18
Full
Oct 26
Last Quarter

Hourly Weather History & Observations

Time (CDT) Temp. Dew Point Humidity Pressure Visibility Wind Dir Wind Speed Gust Speed Precip Events Conditions
12:13 AM 64.4 °F 44.6 °F 49% 29.67 in 10.0 mi South 18.4 mph 26.5 mph N/A   Clear
12:33 AM 64.4 °F 46.4 °F 52% 29.66 in 10.0 mi South 21.9 mph 28.8 mph N/A   Clear
12:53 AM 62.6 °F 46.4 °F 55% 29.66 in 10.0 mi South 20.7 mph 25.3 mph N/A   Clear
1:13 AM 62.6 °F 46.4 °F 55% 29.65 in 10.0 mi South 18.4 mph 25.3 mph N/A   Clear
1:33 AM 62.6 °F 46.4 °F 55% 29.66 in 10.0 mi South 17.3 mph 23.0 mph N/A   Clear
1:53 AM 62.6 °F 44.6 °F 52% 29.66 in 10.0 mi South 17.3 mph - N/A   Clear
2:13 AM 62.6 °F 44.6 °F 52% 29.65 in 10.0 mi South 16.1 mph 21.9 mph N/A   Clear
2:33 AM 62.6 °F 44.6 °F 52% 29.64 in 10.0 mi South 15.0 mph - N/A   Clear
2:54 AM 60.8 °F 44.6 °F 55% 29.64 in 10.0 mi South 13.8 mph - N/A   Clear
3:13 AM 60.8 °F 44.6 °F 55% 29.63 in 10.0 mi South 15.0 mph 20.7 mph N/A   Clear
3:33 AM 59.0 °F 44.6 °F 59% 29.63 in 10.0 mi South 13.8 mph - N/A   Clear
3:53 AM 57.2 °F 44.6 °F 63% 29.63 in 10.0 mi South 8.1 mph - N/A   Clear
4:13 AM 57.2 °F 46.4 °F 67% 29.62 in 10.0 mi South 10.4 mph - N/A   Clear
4:34 AM 57.2 °F 46.4 °F 67% 29.62 in 10.0 mi South 10.4 mph - N/A   Clear
4:53 AM 57.2 °F 46.4 °F 67% 29.62 in 10.0 mi South 9.2 mph - N/A   Clear
5:13 AM 55.4 °F 44.6 °F 67% 29.62 in 10.0 mi South 9.2 mph - N/A   Clear
5:33 AM 53.6 °F 44.6 °F 72% 29.62 in 10.0 mi South 8.1 mph - N/A   Clear
5:53 AM 53.6 °F 44.6 °F 72% 29.62 in 10.0 mi South 5.8 mph - N/A   Clear
6:13 AM 53.6 °F 44.6 °F 72% 29.62 in 10.0 mi South 4.6 mph - N/A   Clear
6:33 AM 51.8 °F 44.6 °F 76% 29.61 in 10.0 mi South 5.8 mph - N/A   Clear
6:53 AM 51.8 °F 44.6 °F 76% 29.62 in 10.0 mi South 6.9 mph - N/A   Clear
7:13 AM 50.0 °F 44.6 °F 82% 29.62 in 10.0 mi South 6.9 mph - N/A   Clear
7:33 AM 50.0 °F 44.6 °F 82% 29.62 in 10.0 mi South 9.2 mph - N/A   Clear
7:53 AM 51.8 °F 46.4 °F 82% 29.62 in 10.0 mi South 8.1 mph - N/A   Clear
8:13 AM 51.8 °F 46.4 °F 82% 29.62 in 10.0 mi South 6.9 mph - N/A   Clear
8:33 AM 53.6 °F 46.4 °F 77% 29.60 in 10.0 mi South 5.8 mph - N/A   Clear
8:54 AM 55.4 °F 46.4 °F 72% 29.60 in 10.0 mi South 10.4 mph - N/A   Clear
9:13 AM 57.2 °F 46.4 °F 67% 29.61 in 10.0 mi South 11.5 mph - N/A   Clear
9:33 AM 59.0 °F 48.2 °F 67% 29.62 in 10.0 mi South 10.4 mph - N/A   Clear
9:53 AM 60.8 °F 48.2 °F 63% 29.62 in 10.0 mi South 9.2 mph - N/A   Clear
10:13 AM 62.6 °F 48.2 °F 59% 29.62 in 10.0 mi South 9.2 mph - N/A   Clear
10:33 AM 64.4 °F 48.2 °F 56% 29.61 in 10.0 mi South 11.5 mph - N/A   Clear
10:53 AM 64.4 °F 48.2 °F 56% 29.62 in 10.0 mi SSW 10.4 mph - N/A   Clear
11:13 AM 66.2 °F 48.2 °F 52% 29.62 in 10.0 mi SSW 10.4 mph - N/A   Clear
11:33 AM 68.0 °F 48.2 °F 49% 29.62 in 10.0 mi SSW 10.4 mph - N/A   Clear
11:53 AM 68.0 °F 48.2 °F 49% 29.61 in 10.0 mi South 8.1 mph - N/A   Clear
12:13 PM 69.8 °F 50.0 °F 49% 29.61 in 10.0 mi South 6.9 mph - N/A   Clear
12:34 PM 69.8 °F 50.0 °F 49% 29.61 in 10.0 mi SSE 11.5 mph - N/A   Clear
12:53 PM 71.6 °F 50.0 °F 46% 29.61 in 10.0 mi South 9.2 mph - N/A   Clear
1:13 PM 71.6 °F 48.2 °F 43% 29.61 in 10.0 mi South 6.9 mph - N/A   Clear
1:33 PM 73.4 °F 50.0 °F 44% 29.61 in 10.0 mi South 9.2 mph - N/A   Clear
1:53 PM 73.4 °F 48.2 °F 41% 29.60 in 10.0 mi South 10.4 mph - N/A   Clear
2:13 PM 73.4 °F 48.2 °F 41% 29.59 in 10.0 mi South 6.9 mph - N/A   Clear
2:33 PM 73.4 °F 50.0 °F 44% 29.59 in 10.0 mi SSE 8.1 mph - N/A   Clear
2:53 PM 75.2 °F 48.2 °F 38% 29.60 in 10.0 mi South 9.2 mph - N/A   Clear
3:13 PM 75.2 °F 50.0 °F 41% 29.59 in 10.0 mi South 9.2 mph - N/A   Clear
3:33 PM 75.2 °F 48.2 °F 38% 29.58 in 10.0 mi SSE 11.5 mph 16.1 mph N/A   Clear
3:53 PM 75.2 °F 48.2 °F 38% 29.58 in 10.0 mi South 8.1 mph - N/A   Clear
4:13 PM 75.2 °F 48.2 °F 38% 29.58 in 10.0 mi South 12.7 mph - N/A   Clear
4:33 PM 75.2 °F 48.2 °F 38% 29.58 in 10.0 mi South 9.2 mph - N/A   Clear
4:53 PM 77.0 °F 48.2 °F 36% 29.57 in 10.0 mi SSE 10.4 mph - N/A   Clear
5:13 PM 77.0 °F 48.2 °F 36% 29.57 in 10.0 mi SSE 10.4 mph - N/A   Clear
5:33 PM 77.0 °F 50.0 °F 39% 29.57 in 10.0 mi South 8.1 mph - N/A   Clear
5:54 PM 71.6 °F 51.8 °F 50% 29.58 in 10.0 mi SSE 3.5 mph - N/A   Clear
6:13 PM 71.6 °F 51.8 °F 50% 29.57 in 10.0 mi ESE 4.6 mph - N/A   Clear
6:33 PM 71.6 °F 53.6 °F 53% 29.57 in 10.0 mi ESE 4.6 mph - N/A   Clear
6:53 PM 69.8 °F 53.6 °F 56% 29.57 in 10.0 mi SE 6.9 mph - N/A   Clear
7:13 PM 68.0 °F 53.6 °F 60% 29.57 in 10.0 mi SE 5.8 mph - N/A   Clear
7:33 PM 66.2 °F 53.6 °F 64% 29.57 in 10.0 mi SE 5.8 mph - N/A   Clear
7:53 PM 66.2 °F 53.6 °F 64% 29.57 in 10.0 mi SE 5.8 mph - N/A   Clear
8:13 PM 64.4 °F 53.6 °F 68% 29.58 in 10.0 mi SSE 6.9 mph - N/A   Clear
8:33 PM 64.4 °F 53.6 °F 68% 29.58 in 10.0 mi SSE 8.1 mph - N/A   Clear
8:53 PM 64.4 °F 53.6 °F 68% 29.58 in 10.0 mi South 6.9 mph - N/A   Clear
9:13 PM 62.6 °F 51.8 °F 68% 29.58 in 10.0 mi SSE 6.9 mph - N/A   Clear
9:34 PM 64.4 °F 51.8 °F 64% 29.57 in 10.0 mi South 5.8 mph - N/A   Clear
9:53 PM 62.6 °F 51.8 °F 68% 29.57 in 10.0 mi SSE 5.8 mph - N/A   Clear
10:13 PM 62.6 °F 51.8 °F 68% 29.58 in 10.0 mi SSE 5.8 mph - N/A   Clear
10:33 PM 62.6 °F 51.8 °F 68% 29.57 in 10.0 mi SSE 5.8 mph - N/A   Clear
10:53 PM 62.6 °F 51.8 °F 68% 29.57 in 10.0 mi SSE 8.1 mph - N/A   Clear
11:13 PM 62.6 °F 51.8 °F 68% 29.57 in 10.0 mi SSE 8.1 mph - N/A   Clear
11:33 PM 62.6 °F 51.8 °F 68% 29.56 in 10.0 mi SSE 8.1 mph - N/A   Clear
11:53 PM 64.4 °F 51.8 °F 64% 29.55 in 10.0 mi SSE 6.9 mph - N/A   Clear